| time (UTC) | temp F | wind direction | speed MPH | gust MPH | rain 1hr in | rain 24hr in | rain mn in | humidity % | barometer mb |
| 20260507015020 | 45 | 285 | 4.0 | 5.0 | 0.00 | 0.54 | 0.54 | 94 | 1011.5 |
| 20260507014521 | 45 | 269 | 2.0 | 4.0 | 0.00 | 0.54 | 0.54 | 94 | 1011.3 |
| 20260507014020 | 45 | 269 | 2.0 | 4.0 | 0.00 | 0.54 | 0.54 | 93 | 1011.2 |
| 20260507013521 | 45 | 269 | 2.0 | 4.0 | 0.00 | 0.54 | 0.54 | 93 | 1011.3 |
| 20260507013021 | 45 | 269 | 2.0 | 4.0 | 0.00 | 0.54 | 0.54 | 93 | 1011.2 |
| 20260507012521 | 45 | 269 | 2.0 | 5.0 | 0.00 | 0.54 | 0.54 | 93 | 1011.1 |
| 20260507012021 | 45 | 250 | 3.0 | 5.0 | 0.00 | 0.54 | 0.54 | 93 | 1011.4 |
| 20260507011521 | 45 | 266 | 3.0 | 4.0 | 0.00 | 0.54 | 0.54 | 93 | 1011.4 |
| 20260507011020 | 45 | 266 | 1.0 | 4.0 | 0.00 | 0.54 | 0.54 | 93 | 1011.1 |
| 20260507010521 | 45 | 266 | 1.0 | 4.0 | 0.00 | 0.54 | 0.54 | 93 | 1011.2 |
| 20260507010021 | 45 | 274 | 1.0 | 3.0 | 0.00 | 0.54 | 0.54 | 92 | 1011.2 |
| 20260507005522 | 45 | 258 | 0.0 | 2.0 | 0.00 | 0.54 | 0.54 | 92 | 1011.1 |
| 20260507005040 | 45 | 258 | 0.0 | 0.0 | 0.00 | 0.54 | 0.54 | 92 | 1011.0 |
| 20260507005032 | 45 | 258 | 0.0 | 0.0 | 0.00 | 0.54 | 0.54 | 92 | 1011.0 |
| 20260507004020 | 45 | 258 | 0.0 | 0.0 | 0.00 | 0.54 | 0.54 | 92 | 1011.0 |
| 20260507003520 | 46 | 258 | 0.0 | 0.0 | 0.00 | 0.54 | 0.54 | 92 | 1011.0 |
| 20260507003021 | 46 | 282 | 0.0 | 0.0 | 0.00 | 0.54 | 0.54 | 92 | 1010.9 |
| 20260507002521 | 46 | 282 | 0.0 | 0.0 | 0.00 | 0.54 | 0.54 | 92 | 1010.8 |
| 20260507002020 | 46 | 282 | 0.0 | 0.0 | 0.00 | 0.54 | 0.54 | 92 | 1010.5 |
| 20260507001521 | 46 | 282 | 0.0 | 1.0 | 0.00 | 0.54 | 0.54 | 92 | 1010.6 |
| 20260507001022 | 46 | 282 | 0.0 | 1.0 | 0.00 | 0.54 | 0.54 | 92 | 1010.5 |
| 20260507000544 | 46 | 282 | 0.0 | 1.0 | 0.00 | 0.54 | 0.54 | 92 | 1010.5 |
| 20260507000536 | 46 | 282 | 0.0 | 1.0 | 0.00 | 0.54 | 0.54 | 92 | 1010.6 |
| 20260506235521 | 46 | 282 | 0.0 | 1.0 | 0.00 | 0.54 | 0.54 | 92 | 1010.5 |
| 20260506235021 | 46 | 282 | 0.0 | 1.0 | 0.00 | 0.54 | 0.54 | 92 | 1010.5 |
| 20260506234541 | 46 | 282 | 0.0 | 0.0 | 0.00 | 0.54 | 0.54 | 92 | 1010.1 |
| 20260506234535 | 46 | 282 | 0.0 | 0.0 | 0.00 | 0.54 | 0.54 | 92 | 1010.2 |
| 20260506233755 | 46 | 282 | 0.0 | 0.0 | 0.00 | 0.54 | 0.54 | 92 | 1010.1 |
| 20260506233254 | 46 | 282 | 0.0 | 0.0 | 0.00 | 0.54 | 0.54 | 92 | 1010.2 |
| 20260506232520 | 46 | 282 | 0.0 | 0.0 | 0.00 | 0.54 | 0.54 | 92 | 1010.1 |
| 20260506232020 | 46 | 282 | 0.0 | 3.0 | 0.00 | 0.54 | 0.54 | 92 | 1010.1 |
| 20260506231758 | 46 | 282 | 0.0 | 3.0 | 0.00 | 0.54 | 0.54 | 92 | 1010.1 |
| 20260506231021 | 46 | 266 | 0.0 | 0.0 | 0.00 | 0.54 | 0.54 | 92 | 1010.0 |
| 20260506230521 | 46 | 266 | 0.0 | 4.0 | 0.00 | 0.54 | 0.54 | 92 | 1010.2 |
| 20260506230020 | 46 | 266 | 0.0 | 4.0 | 0.00 | 0.54 | 0.54 | 92 | 1010.0 |
| 20260506225521 | 46 | 305 | 1.0 | 4.0 | 0.00 | 0.54 | 0.54 | 92 | 1010.0 |
| 20260506225020 | 47 | 306 | 2.0 | 4.0 | 0.00 | 0.54 | 0.54 | 92 | 1009.9 |
| 20260506224520 | 47 | 6 | 1.0 | 4.0 | 0.00 | 0.54 | 0.54 | 92 | 1009.9 |
| 20260506224020 | 46 | 290 | 1.0 | 4.0 | 0.00 | 0.54 | 0.54 | 92 | 1010.0 |
| 20260506223520 | 46 | 296 | 1.0 | 5.0 | 0.00 | 0.54 | 0.54 | 92 | 1010.0 |
| 20260506223020 | 46 | 300 | 4.0 | 5.0 | 0.00 | 0.54 | 0.54 | 92 | 1009.9 |
| 20260506222755 | 46 | 282 | 1.0 | 3.0 | 0.00 | 0.54 | 0.54 | 92 | 1009.9 |
| 20260506222021 | 46 | 282 | 0.0 | 3.0 | 0.00 | 0.54 | 0.54 | 92 | 1009.8 |
| 20260506221520 | 46 | 305 | 0.0 | 4.0 | 0.00 | 0.54 | 0.54 | 92 | 1009.7 |
| 20260506221020 | 46 | 314 | 2.0 | 4.0 | 0.00 | 0.54 | 0.54 | 92 | 1009.6 |
| 20260506220520 | 46 | 302 | 1.0 | 3.0 | 0.00 | 0.54 | 0.54 | 92 | 1009.8 |
| 20260506220020 | 47 | 319 | 1.0 | 3.0 | 0.00 | 0.54 | 0.54 | 92 | 1009.6 |
| 20260506215520 | 47 | 316 | 0.0 | 4.0 | 0.00 | 0.54 | 0.54 | 92 | 1009.6 |
| 20260506215020 | 47 | 341 | 1.0 | 5.0 | 0.00 | 0.54 | 0.54 | 92 | 1009.7 |
| 20260506214520 | 47 | 305 | 1.0 | 5.0 | 0.00 | 0.55 | 0.54 | 92 | 1009.7 |
| 20260506214020 | 47 | 175 | 0.0 | 4.0 | 0.00 | 0.55 | 0.54 | 92 | 1009.5 |
| 20260506213522 | 47 | 142 | 1.0 | 5.0 | 0.00 | 0.56 | 0.54 | 92 | 1009.3 |
| 20260506213022 | 47 | 286 | 1.0 | 5.0 | 0.00 | 0.57 | 0.54 | 92 | 1009.4 |
| 20260506212520 | 47 | 305 | 0.0 | 5.0 | 0.00 | 0.57 | 0.54 | 93 | 1009.4 |
| 20260506212020 | 47 | 296 | 1.0 | 4.0 | 0.00 | 0.57 | 0.54 | 93 | 1009.4 |
| 20260506211754 | 47 | 307 | 0.0 | 5.0 | 0.00 | 0.57 | 0.54 | 93 | 1009.4 |
| 20260506211020 | 47 | 317 | 1.0 | 7.0 | 0.00 | 0.57 | 0.54 | 93 | 1009.4 |
| 20260506210520 | 47 | 266 | 1.0 | 7.0 | 0.00 | 0.57 | 0.54 | 93 | 1009.3 |
| 20260506210020 | 47 | 271 | 1.0 | 6.0 | 0.00 | 0.57 | 0.54 | 93 | 1009.3 |
| 20260506205520 | 47 | 320 | 2.0 | 7.0 | 0.00 | 0.57 | 0.54 | 94 | 1009.3 |
| 20260506205021 | 47 | 295 | 3.0 | 7.0 | 0.00 | 0.57 | 0.54 | 94 | 1009.2 |
| 20260506204757 | 47 | 276 | 1.0 | 6.0 | 0.00 | 0.57 | 0.54 | 94 | 1009.1 |
| 20260506204020 | 47 | 314 | 2.0 | 6.0 | 0.00 | 0.57 | 0.54 | 94 | 1009.1 |
| 20260506203757 | 47 | 223 | 2.0 | 9.0 | 0.00 | 0.57 | 0.54 | 94 | 1009.1 |
| 20260506203516 | 47 | 310 | 3.0 | 9.0 | 0.00 | 0.57 | 0.54 | 95 | 1009.1 |
| 20260506202749 | 47 | 274 | 2.0 | 6.0 | 0.00 | 0.57 | 0.54 | 94 | 1009.0 |
| 20260506202020 | 47 | 282 | 3.0 | 6.0 | 0.00 | 0.57 | 0.54 | 94 | 1008.9 |
| 20260506201519 | 46 | 305 | 1.0 | 6.0 | 0.00 | 0.57 | 0.54 | 94 | 1008.8 |
| 20260506201257 | 46 | 313 | 2.0 | 6.0 | 0.00 | 0.57 | 0.54 | 94 | 1008.9 |
| 20260506200521 | 46 | 317 | 1.0 | 5.0 | 0.00 | 0.57 | 0.54 | 94 | 1008.8 |
| 20260506200246 | 46 | 298 | 0.0 | 5.0 | 0.00 | 0.57 | 0.54 | 94 | 1008.8 |
| 20260506195756 | 46 | 305 | 2.0 | 5.0 | 0.00 | 0.57 | 0.54 | 94 | 1008.8 |
| 20260506195020 | 46 | 326 | 2.0 | 6.0 | 0.00 | 0.57 | 0.54 | 94 | 1008.8 |
| 20260506194520 | 46 | 323 | 4.0 | 6.0 | 0.00 | 0.57 | 0.54 | 94 | 1008.7 |
| 20260506194021 | 46 | 289 | 2.0 | 7.0 | 0.00 | 0.57 | 0.54 | 94 | 1008.8 |
| 20260506193520 | 46 | 341 | 4.0 | 7.0 | 0.00 | 0.57 | 0.54 | 94 | 1008.7 |
| 20260506193020 | 46 | 307 | 2.0 | 6.0 | 0.00 | 0.57 | 0.54 | 94 | 1008.6 |
| 20260506192755 | 46 | 288 | 2.0 | 6.0 | 0.00 | 0.57 | 0.54 | 94 | 1008.4 |
| 20260506192254 | 46 | 17 | 3.0 | 6.0 | 0.00 | 0.57 | 0.54 | 95 | 1008.2 |
| 20260506191530 | 46 | 354 | 3.0 | 9.0 | 0.00 | 0.57 | 0.54 | 95 | 1008.1 |
| 20260506191520 | 46 | 295 | 3.0 | 9.0 | 0.00 | 0.57 | 0.54 | 95 | 1008.2 |
| 20260506190520 | 46 | 323 | 2.0 | 5.0 | 0.00 | 0.57 | 0.54 | 94 | 1008.5 |
| 20260506190514 | 46 | 279 | 2.0 | 6.0 | 0.00 | 0.57 | 0.54 | 94 | 1008.5 |
| 20260506185520 | 46 | 292 | 4.0 | 6.0 | 0.00 | 0.57 | 0.54 | 94 | 1008.5 |
| 20260506185255 | 46 | 299 | 2.0 | 6.0 | 0.00 | 0.57 | 0.54 | 95 | 1008.4 |
| 20260506184520 | 46 | 227 | 2.0 | 6.0 | 0.00 | 0.57 | 0.54 | 94 | 1008.2 |
| 20260506184020 | 46 | 334 | 3.0 | 6.0 | 0.00 | 0.57 | 0.54 | 95 | 1008.1 |
| 20260506183754 | 46 | 331 | 2.0 | 7.0 | 0.00 | 0.57 | 0.54 | 95 | 1008.1 |
| 20260506183037 | 45 | 344 | 3.0 | 6.0 | 0.01 | 0.58 | 0.54 | 94 | 1008.2 |
| 20260506183031 | 45 | 286 | 4.0 | 7.0 | 0.01 | 0.58 | 0.54 | 94 | 1008.2 |
| 20260506182245 | 45 | 333 | 2.0 | 5.0 | 0.01 | 0.60 | 0.54 | 94 | 1008.2 |
| 20260506181525 | 45 | 305 | 4.0 | 7.0 | 0.01 | 0.67 | 0.54 | 94 | 1008.2 |
| 20260506181521 | 45 | 326 | 3.0 | 7.0 | 0.01 | 0.67 | 0.54 | 94 | 1008.2 |
| 20260506180529 | 45 | 306 | 2.0 | 9.0 | 0.01 | 0.68 | 0.54 | 94 | 1008.2 |
| 20260506180019 | 45 | 312 | 2.0 | 10.0 | 0.01 | 0.68 | 0.54 | 94 | 1008.0 |
| 20260506175521 | 46 | 295 | 4.0 | 10.0 | 0.01 | 0.67 | 0.54 | 94 | 1007.9 |
| 20260506175023 | 46 | 296 | 2.0 | 5.0 | 0.01 | 0.67 | 0.54 | 94 | 1007.9 |
| 20260506174520 | 46 | 319 | 2.0 | 5.0 | 0.02 | 0.67 | 0.54 | 94 | 1007.8 |
| 20260506174300 | 46 | 0 | 1.0 | 7.0 | 0.02 | 0.67 | 0.54 | 94 | 1007.7 |
| 20260506173020 | 46 | 264 | 1.0 | 3.0 | 0.01 | 0.67 | 0.53 | 94 | 1007.4 |
| 20260506172755 | 46 | 274 | 2.0 | 6.0 | 0.01 | 0.67 | 0.53 | 94 | 1007.5 |
| 20260506172042 | 45 | 326 | 1.0 | 6.0 | 0.01 | 0.67 | 0.53 | 94 | 1007.4 |
| 20260506172034 | 46 | 265 | 1.0 | 6.0 | 0.01 | 0.67 | 0.53 | 95 | 1007.4 |
| 20260506171020 | 45 | 341 | 2.0 | 6.0 | 0.02 | 0.67 | 0.53 | 94 | 1007.4 |
| 20260506170755 | 45 | 262 | 1.0 | 7.0 | 0.02 | 0.67 | 0.53 | 94 | 1007.4 |
| 20260506170247 | 45 | 310 | 1.0 | 7.0 | 0.02 | 0.67 | 0.53 | 94 | 1007.4 |
| 20260506165521 | 45 | 317 | 2.0 | 6.0 | 0.02 | 0.65 | 0.53 | 94 | 1007.5 |
| 20260506165020 | 45 | 76 | 2.0 | 7.0 | 0.03 | 0.65 | 0.53 | 94 | 1007.4 |
| 20260506164519 | 45 | 336 | 1.0 | 7.0 | 0.02 | 0.65 | 0.52 | 94 | 1007.4 |
| 20260506164020 | 45 | 354 | 2.0 | 6.0 | 0.02 | 0.65 | 0.52 | 94 | 1007.4 |
| 20260506163754 | 44 | 61 | 2.0 | 7.0 | 0.02 | 0.65 | 0.52 | 94 | 1007.3 |
| 20260506163020 | 44 | 309 | 1.0 | 7.0 | 0.02 | 0.65 | 0.52 | 94 | 1007.5 |
| 20260506162730 | 44 | 334 | 2.0 | 6.0 | 0.02 | 0.65 | 0.52 | 94 | 1007.5 |
| 20260506161520 | 44 | 288 | 1.0 | 7.0 | 0.02 | 0.65 | 0.52 | 94 | 1007.6 |
| 20260506161317 | 44 | 275 | 1.0 | 7.0 | 0.02 | 0.65 | 0.51 | 94 | 1007.4 |
| 20260506161313 | 44 | 240 | 3.0 | 7.0 | 0.02 | 0.65 | 0.51 | 94 | 1007.5 |
| 20260506160253 | 44 | 330 | 2.0 | 7.0 | 0.03 | 0.65 | 0.51 | 94 | 1007.4 |
| 20260506155520 | 44 | 330 | 1.0 | 10.0 | 0.03 | 0.62 | 0.51 | 94 | 1007.4 |
| 20260506155019 | 44 | 300 | 2.0 | 10.0 | 0.03 | 0.62 | 0.50 | 93 | 1007.3 |
| 20260506154519 | 44 | 351 | 2.0 | 5.0 | 0.03 | 0.62 | 0.50 | 93 | 1007.1 |
| 20260506154020 | 44 | 264 | 2.0 | 5.0 | 0.04 | 0.62 | 0.50 | 93 | 1007.1 |
| 20260506153519 | 44 | 354 | 1.0 | 5.0 | 0.06 | 0.62 | 0.50 | 93 | 1006.8 |
| 20260506153058 | 44 | 321 | 2.0 | 6.0 | 0.08 | 0.62 | 0.50 | 93 | 1006.7 |
| 20260506153024 | 44 | 326 | 1.0 | 6.0 | 0.08 | 0.62 | 0.50 | 93 | 1006.8 |
| 20260506151525 | 44 | 185 | 2.0 | 6.0 | 0.09 | 0.62 | 0.49 | 92 | 1006.8 |
| 20260506151521 | 44 | 338 | 3.0 | 6.0 | 0.09 | 0.62 | 0.50 | 92 | 1006.8 |
| 20260506150520 | 44 | 348 | 2.0 | 9.0 | 0.09 | 0.62 | 0.49 | 92 | 1006.7 |
| 20260506150019 | 44 | 7 | 2.0 | 9.0 | 0.09 | 0.62 | 0.48 | 92 | 1006.7 |
| 20260506145755 | 44 | 217 | 2.0 | 6.0 | 0.09 | 0.53 | 0.48 | 92 | 1006.8 |
| 20260506145019 | 44 | 354 | 1.0 | 7.0 | 0.09 | 0.53 | 0.47 | 91 | 1006.7 |
| 20260506144753 | 44 | 237 | 3.0 | 9.0 | 0.09 | 0.53 | 0.47 | 91 | 1006.8 |
| 20260506144253 | 45 | 247 | 2.0 | 9.0 | 0.09 | 0.53 | 0.46 | 91 | 1006.9 |
| 20260506144004 | 45 | 279 | 4.0 | 7.0 | 0.08 | 0.53 | 0.44 | 91 | 1006.9 |
| 20260506143019 | 45 | 78 | 2.0 | 6.0 | 0.07 | 0.53 | 0.42 | 91 | 1006.6 |
| 20260506142520 | 46 | 259 | 2.0 | 10.0 | 0.08 | 0.53 | 0.42 | 90 | 1006.5 |
| 20260506142020 | 46 | 290 | 3.0 | 10.0 | 0.07 | 0.53 | 0.41 | 90 | 1006.2 |
| 20260506141519 | 46 | 354 | 4.0 | 9.0 | 0.08 | 0.53 | 0.41 | 90 | 1005.9 |
| 20260506141019 | 47 | 319 | 2.0 | 9.0 | 0.08 | 0.53 | 0.40 | 90 | 1005.9 |
| 20260506140519 | 47 | 340 | 2.0 | 9.0 | 0.08 | 0.53 | 0.40 | 90 | 1005.8 |
| 20260506140256 | 47 | 54 | 3.0 | 9.0 | 0.08 | 0.53 | 0.39 | 89 | 1005.8 |
| 20260506135740 | 48 | 344 | 4.0 | 6.0 | 0.09 | 0.45 | 0.39 | 89 | 1005.7 |
| 20260506135019 | 49 | 55 | 2.0 | 6.0 | 0.08 | 0.45 | 0.38 | 89 | 1005.8 |
| 20260506134520 | 49 | 62 | 2.0 | 7.0 | 0.09 | 0.45 | 0.38 | 89 | 1005.9 |
| 20260506134019 | 50 | 348 | 3.0 | 9.0 | 0.10 | 0.45 | 0.37 | 89 | 1006.1 |
| 20260506133757 | 51 | 302 | 3.0 | 9.0 | 0.10 | 0.45 | 0.36 | 89 | 1006.0 |
| 20260506133019 | 52 | 292 | 4.0 | 9.0 | 0.10 | 0.45 | 0.35 | 89 | 1006.0 |
| 20260506132755 | 53 | 114 | 2.0 | 6.0 | 0.10 | 0.45 | 0.34 | 91 | 1006.1 |
| 20260506132020 | 54 | 30 | 4.0 | 6.0 | 0.12 | 0.45 | 0.33 | 92 | 1006.1 |
| 20260506131818 | 55 | 292 | 0.0 | 4.0 | 0.13 | 0.45 | 0.32 | 94 | 1006.0 |
| 20260506131812 | 54 | 165 | 1.0 | 4.0 | 0.12 | 0.45 | 0.33 | 93 | 1006.0 |
| 20260506130519 | 55 | 306 | 2.0 | 6.0 | 0.14 | 0.45 | 0.32 | 94 | 1005.9 |
| 20260506130020 | 55 | 248 | 2.0 | 9.0 | 0.14 | 0.45 | 0.31 | 94 | 1005.9 |
| 20260506125519 | 55 | 185 | 5.0 | 9.0 | 0.14 | 0.31 | 0.30 | 94 | 1005.9 |
| 20260506125019 | 55 | 274 | 4.0 | 9.0 | 0.15 | 0.31 | 0.30 | 94 | 1005.9 |
| 20260506124520 | 55 | 199 | 6.0 | 14.0 | 0.14 | 0.31 | 0.29 | 94 | 1006.1 |
| 20260506124021 | 55 | 204 | 4.0 | 14.0 | 0.13 | 0.31 | 0.27 | 94 | 1006.1 |
| 20260506123519 | 55 | 173 | 4.0 | 13.0 | 0.12 | 0.31 | 0.26 | 94 | 1006.2 |
| 20260506123020 | 55 | 227 | 6.0 | 13.0 | 0.12 | 0.31 | 0.25 | 94 | 1006.2 |
| 20260506122519 | 55 | 204 | 5.0 | 14.0 | 0.11 | 0.31 | 0.24 | 94 | 1006.1 |
| 20260506122020 | 55 | 210 | 5.0 | 14.0 | 0.09 | 0.31 | 0.22 | 94 | 1006.0 |
| 20260506121520 | 55 | 231 | 6.0 | 11.0 | 0.08 | 0.31 | 0.21 | 94 | 1006.4 |
| 20260506121019 | 55 | 206 | 5.0 | 13.0 | 0.07 | 0.31 | 0.19 | 94 | 1006.2 |
| 20260506120519 | 55 | 206 | 6.0 | 13.0 | 0.06 | 0.31 | 0.18 | 94 | 1006.2 |
| 20260506120037 | 55 | 206 | 4.0 | 9.0 | 0.04 | 0.26 | 0.16 | 94 | 1005.9 |
| 20260506120031 | 55 | 252 | 5.0 | 12.0 | 0.05 | 0.31 | 0.17 | 94 | 1006.1 |
| 20260506115019 | 55 | 169 | 3.0 | 10.0 | 0.03 | 0.26 | 0.15 | 94 | 1005.8 |
| 20260506114519 | 55 | 209 | 6.0 | 11.0 | 0.04 | 0.26 | 0.15 | 94 | 1005.8 |
| 20260506114019 | 55 | 196 | 4.0 | 11.0 | 0.03 | 0.26 | 0.14 | 94 | 1005.7 |
| 20260506113519 | 55 | 182 | 4.0 | 10.0 | 0.04 | 0.26 | 0.14 | 94 | 1005.7 |
| 20260506113019 | 55 | 186 | 5.0 | 10.0 | 0.03 | 0.26 | 0.13 | 94 | 1005.7 |
| 20260506112758 | 55 | 127 | 6.0 | 11.0 | 0.03 | 0.26 | 0.13 | 94 | 1005.7 |
| 20260506112020 | 55 | 200 | 5.0 | 15.0 | 0.04 | 0.26 | 0.13 | 94 | 1005.7 |
| 20260506111519 | 55 | 227 | 7.0 | 15.0 | 0.04 | 0.26 | 0.13 | 95 | 1005.7 |
| 20260506111019 | 55 | 206 | 7.0 | 12.0 | 0.03 | 0.26 | 0.12 | 95 | 1005.6 |
| 20260506110519 | 55 | 217 | 6.0 | 12.0 | 0.04 | 0.26 | 0.12 | 95 | 1005.7 |
| 20260506110019 | 54 | 212 | 7.0 | 15.0 | 0.04 | 0.26 | 0.12 | 95 | 1005.7 |
| 20260506105520 | 54 | 257 | 7.0 | 15.0 | 0.04 | 0.22 | 0.12 | 95 | 1005.5 |
| 20260506105019 | 54 | 238 | 6.0 | 16.0 | 0.04 | 0.22 | 0.12 | 95 | 1005.6 |
| 20260506104519 | 54 | 235 | 7.0 | 16.0 | 0.03 | 0.22 | 0.11 | 95 | 1005.5 |
| 20260506104019 | 54 | 176 | 8.0 | 16.0 | 0.03 | 0.22 | 0.11 | 95 | 1005.6 |
| 20260506103754 | 53 | 179 | 7.0 | 16.0 | 0.02 | 0.22 | 0.10 | 96 | 1005.7 |
| 20260506103020 | 53 | 204 | 8.0 | 14.0 | 0.03 | 0.22 | 0.10 | 95 | 1005.8 |
| 20260506102519 | 53 | 190 | 8.0 | 15.0 | 0.03 | 0.22 | 0.10 | 96 | 1005.9 |
| 20260506102257 | 52 | 209 | 8.0 | 15.0 | 0.02 | 0.22 | 0.09 | 96 | 1005.9 |
| 20260506101519 | 52 | 179 | 4.0 | 9.0 | 0.03 | 0.22 | 0.09 | 95 | 1005.9 |
| 20260506101019 | 52 | 240 | 4.0 | 7.0 | 0.03 | 0.22 | 0.09 | 95 | 1005.9 |
| 20260506100519 | 51 | 237 | 3.0 | 11.0 | 0.03 | 0.22 | 0.08 | 95 | 1005.8 |
| 20260506100019 | 51 | 248 | 4.0 | 11.0 | 0.03 | 0.22 | 0.08 | 95 | 1005.9 |
| 20260506095519 | 51 | 165 | 4.0 | 9.0 | 0.04 | 0.19 | 0.08 | 96 | 1005.8 |
| 20260506095019 | 50 | 166 | 6.0 | 9.0 | 0.04 | 0.19 | 0.08 | 96 | 1005.8 |
| 20260506094520 | 50 | 178 | 4.0 | 9.0 | 0.04 | 0.19 | 0.08 | 95 | 1005.8 |
| 20260506094020 | 50 | 176 | 3.0 | 5.0 | 0.04 | 0.19 | 0.08 | 95 | 1005.8 |
| 20260506093519 | 50 | 171 | 2.0 | 9.0 | 0.04 | 0.19 | 0.08 | 95 | 1005.9 |
| 20260506093019 | 50 | 133 | 4.0 | 10.0 | 0.04 | 0.19 | 0.07 | 95 | 1005.9 |
| 20260506092754 | 49 | 172 | 6.0 | 10.0 | 0.04 | 0.20 | 0.07 | 95 | 1006.1 |
| 20260506092019 | 49 | 186 | 0.0 | 1.0 | 0.04 | 0.20 | 0.07 | 94 | 1006.1 |
| 20260506091521 | 49 | 186 | 0.0 | 1.0 | 0.03 | 0.20 | 0.06 | 94 | 1006.0 |
| 20260506091018 | 49 | 186 | 0.0 | 1.0 | 0.04 | 0.20 | 0.06 | 94 | 1006.1 |
| 20260506090519 | 49 | 186 | 0.0 | 3.0 | 0.03 | 0.20 | 0.05 | 94 | 1006.4 |
| 20260506090039 | 49 | 186 | 0.0 | 7.0 | 0.02 | 0.17 | 0.04 | 94 | 1006.6 |
| 20260506090031 | 49 | 186 | 0.0 | 5.0 | 0.03 | 0.20 | 0.05 | 94 | 1006.4 |
| 20260506085019 | 48 | 186 | 3.0 | 7.0 | 0.02 | 0.17 | 0.04 | 94 | 1006.6 |
| 20260506084519 | 48 | 317 | 0.0 | 2.0 | 0.02 | 0.17 | 0.04 | 94 | 1006.6 |
| 20260506084019 | 48 | 317 | 1.0 | 3.0 | 0.02 | 0.17 | 0.04 | 93 | 1006.8 |
| 20260506083534 | 48 | 317 | 2.0 | 3.0 | 0.02 | 0.17 | 0.04 | 93 | 1006.9 |
| 20260506082519 | 48 | 171 | 0.0 | 0.0 | 0.01 | 0.17 | 0.03 | 94 | 1007.0 |
| 20260506082019 | 48 | 171 | 0.0 | 3.0 | 0.02 | 0.17 | 0.03 | 94 | 1007.0 |
| 20260506081533 | 48 | 171 | 0.0 | 3.0 | 0.02 | 0.17 | 0.03 | 94 | 1006.9 |
| 20260506080518 | 48 | 100 | 2.0 | 3.0 | 0.01 | 0.17 | 0.02 | 94 | 1006.8 |
| 20260506073019 | 48 | 71 | 1.0 | 4.0 | 0.01 | 0.16 | 0.02 | 93 | 1006.9 |
| 20260506072518 | 48 | 71 | 0.0 | 4.0 | 0.01 | 0.16 | 0.01 | 93 | 1007.0 |
| 20260506072019 | 48 | 61 | 0.0 | 9.0 | 0.00 | 0.16 | 0.01 | 93 | 1007.0 |
| 20260506071519 | 48 | 197 | 1.0 | 11.0 | 0.01 | 0.16 | 0.01 | 93 | 1006.9 |
| 20260506071018 | 48 | 93 | 8.0 | 11.0 | 0.01 | 0.16 | 0.01 | 92 | 1006.7 |
| 20260506070518 | 48 | 100 | 8.0 | 11.0 | 0.01 | 0.16 | 0.01 | 92 | 1006.8 |
| 20260506062018 | 49 | 83 | 6.0 | 10.0 | 0.01 | 0.15 | 0.01 | 91 | 1007.2 |
| 20260506061755 | 49 | 69 | 4.0 | 7.0 | 0.00 | 0.15 | 0.00 | 90 | 1007.3 |
| 20260506061020 | 49 | 71 | 5.0 | 7.0 | 0.00 | 0.15 | 0.00 | 90 | 1007.7 |
| 20260506060519 | 49 | 68 | 0.0 | 7.0 | 0.00 | 0.15 | 0.00 | 90 | 1008.0 |
| 20260506051018 | 49 | 78 | 5.0 | 7.0 | 0.00 | 0.15 | 0.00 | 90 | 1008.8 |
| 20260506050519 | 50 | 93 | 4.0 | 7.0 | 0.00 | 0.15 | 0.00 | 90 | 1008.9 |
| 20260506044519 | 50 | 90 | 5.0 | 10.0 | 0.00 | 0.15 | 0.00 | 90 | 1008.7 |
| 20260506044019 | 50 | 83 | 8.0 | 10.0 | 0.00 | 0.15 | 0.00 | 90 | 1008.7 |
| 20260506043519 | 50 | 89 | 6.0 | 11.0 | 0.00 | 0.15 | 0.00 | 90 | 1008.7 |
| 20260506043018 | 51 | 71 | 6.0 | 11.0 | 0.00 | 0.15 | 0.00 | 90 | 1008.9 |
| 20260506042519 | 51 | 76 | 6.0 | 10.0 | 0.00 | 0.15 | 0.00 | 90 | 1008.4 |
| 20260506042018 | 51 | 72 | 6.0 | 12.0 | 0.00 | 0.15 | 0.00 | 90 | 1008.4 |
| 20260506041520 | 51 | 80 | 8.0 | 12.0 | 0.00 | 0.15 | 0.00 | 90 | 1008.5 |
| 20260506041018 | 52 | 71 | 8.0 | 11.0 | 0.00 | 0.15 | 0.00 | 90 | 1008.6 |
| 20260506040803 | 52 | 85 | 4.0 | 11.0 | 0.00 | 0.15 | 0.00 | 91 | 1008.7 |
| 20260506040019 | 52 | 90 | 6.0 | 11.0 | 0.00 | 0.15 | 0.00 | 90 | 1008.7 |
| 20260506035518 | 53 | 103 | 8.0 | 11.0 | 0.00 | 0.15 | 0.15 | 91 | 1008.6 |
| 20260506035018 | 53 | 96 | 6.0 | 9.0 | 0.00 | 0.15 | 0.15 | 91 | 1008.8 |
| 20260506034518 | 53 | 90 | 4.0 | 10.0 | 0.00 | 0.15 | 0.15 | 91 | 1008.5 |
| 20260506034018 | 53 | 59 | 2.0 | 10.0 | 0.00 | 0.15 | 0.15 | 91 | 1008.7 |
| 20260506033519 | 53 | 79 | 4.0 | 6.0 | 0.00 | 0.15 | 0.15 | 91 | 1008.6 |
| 20260506033019 | 53 | 90 | 4.0 | 6.0 | 0.00 | 0.15 | 0.15 | 90 | 1008.6 |
| 20260506032518 | 53 | 85 | 0.0 | 3.0 | 0.00 | 0.15 | 0.15 | 90 | 1008.6 |
| 20260506032018 | 54 | 37 | 0.0 | 4.0 | 0.00 | 0.15 | 0.15 | 90 | 1008.7 |
| 20260506031519 | 54 | 275 | 0.0 | 4.0 | 0.00 | 0.15 | 0.15 | 90 | 1009.0 |
| 20260506031019 | 54 | 61 | 2.0 | 3.0 | 0.00 | 0.15 | 0.15 | 90 | 1008.9 |
| 20260506030759 | 54 | 41 | 0.0 | 3.0 | 0.00 | 0.15 | 0.15 | 90 | 1009.1 |
| 20260506030018 | 54 | 51 | 0.0 | 5.0 | 0.00 | 0.15 | 0.15 | 90 | 1009.0 |
| 20260506025518 | 54 | 79 | 1.0 | 6.0 | 0.00 | 0.15 | 0.15 | 90 | 1009.0 |
| 20260506025020 | 54 | 71 | 5.0 | 6.0 | 0.00 | 0.15 | 0.15 | 89 | 1008.9 |
| 20260506024755 | 54 | 65 | 4.0 | 6.0 | 0.00 | 0.15 | 0.15 | 89 | 1009.0 |
| 20260506024020 | 54 | 83 | 5.0 | 6.0 | 0.00 | 0.15 | 0.15 | 88 | 1008.9 |
| 20260506023518 | 54 | 71 | 3.0 | 5.0 | 0.00 | 0.15 | 0.15 | 88 | 1008.9 |
| 20260506023018 | 54 | 35 | 2.0 | 4.0 | 0.00 | 0.15 | 0.15 | 87 | 1008.9 |
| 20260506022518 | 55 | 340 | 1.0 | 4.0 | 0.00 | 0.15 | 0.15 | 86 | 1008.9 |
| 20260506022018 | 55 | 283 | 1.0 | 6.0 | 0.00 | 0.15 | 0.15 | 86 | 1009.0 |
| 20260506021518 | 55 | 48 | 2.0 | 6.0 | 0.00 | 0.15 | 0.15 | 86 | 1009.0 |
| 20260506021019 | 55 | 0 | 1.0 | 6.0 | 0.00 | 0.15 | 0.15 | 86 | 1008.8 |
| 20260506020518 | 55 | 1 | 3.0 | 6.0 | 0.00 | 0.15 | 0.15 | 85 | 1008.7 |
| 20260506020018 | 55 | 350 | 3.0 | 6.0 | 0.00 | 0.15 | 0.15 | 85 | 1008.7 |
| 20260506015518 | 55 | 25 | 1.0 | 6.0 | 0.00 | 0.15 | 0.15 | 85 | 1008.8 |